[[{"header":{"parameterUnit":"m.s-1","parameterCategory":1,"la1":30.2991,"la2":30.254,"lo1":-89.0895,"lo2":-89.0444,"dy":0.0017,"dx":0.0017,"nx":28,"ny":28,"refTime":"2024-08-04T09:00:00:Z","depth":0,"parameterNumber":2,"parameterNumberName":"U-component_of_WINDS"},"data":[0,0,0,0,0,0,0,0,0,0,0,0,0,0,0,0,0,0,0,0,0,0,0,0,0,0,0,0,0,0,0,0,0,0,0,0,0,0,0,0,0,0,0,0,0,0,0,0,0,0,0,0,0,0,0,0,0,0,-2.3966,-2.3967,0,-2.4076,-2.4077,-2.4079,-2.407,-2.4068,-2.4066,-2.4065,-2.418,-2.4184,-2.4189,0,0,0,0,0,0,0,0,0,0,0,0,0,-2.3748,-2.3752,-2.3965,-2.3967,-2.3968,-2.4076,-2.4077,-2.4079,-2.407,-2.4068,-2.4066,-2.4064,-2.4178,-2.4184,-2.4189,0,0,0,0,0,0,0,0,0,0,0,0,0,-2.3849,-2.3753,-2.3965,-2.3977,-2.3979,-2.4076,-2.4077,-2.4079,-2.407,-2.4068,-2.4065,-2.4063,-2.4176,-2.4183,-2.419,-2.4283,0,0,-2.4211,-2.4214,0,0,0,0,0,0,0,0,-2.3843,-2.3857,-2.3974,-2.3976,-2.3979,-2.4056,-2.4043,-2.4148,-2.4071,-2.4036,-2.4065,-2.4062,-2.4141,-2.4151,-2.4177,-2.4288,-2.4293,-2.4212,-2.4216,-2.4219,-2.4221,0,0,0,0,0,0,0,-2.3836,-2.3852,-2.4009,-2.3975,-2.3978,-2.3977,-2.3988,-2.4063,-2.4101,-2.4039,-2.4038,-2.4051,-2.4142,-2.417,-2.4179,-2.4295,-2.4212,-2.4218,-2.4222,-2.4225,-2.4489,-2.4492,0,0,0,0,0,0,-2.3826,-2.3846,-2.4006,-2.4013,-2.3903,-2.3983,-2.3996,-2.4034,-2.41,-2.4108,-2.4053,-2.405,-2.416,-2.4171,-2.4183,-2.4298,-2.4219,-2.4225,-2.4229,-2.4487,-2.449,-2.4493,0,0,0,0,0,0,-2.3822,-2.3841,-2.4001,-2.3929,-2.395,-2.3989,-2.4032,-2.4038,-2.4066,-2.4111,-2.4118,-2.4075,-2.4158,-2.4174,-2.4258,-2.4302,-2.4229,-2.4235,-2.4483,-2.4488,-2.4492,-2.4527,0,0,0,0,0,0,-2.3816,-2.3839,-2.3875,-2.393,-2.3954,-2.4074,-2.4035,-2.4042,-2.4078,-2.4075,-2.4134,-2.4141,-2.4157,-2.4248,-2.4265,-2.431,-2.424,-2.4479,-2.4485,-2.449,-2.4522,-2.4531,-2.454,0,0,0,0,0,-2.3808,-2.388,-2.3876,-2.3896,-2.3999,-2.4077,-2.409,-2.4107,-2.4081,-2.4118,-2.4147,-2.4139,-2.4294,-2.4257,-2.4276,-2.4323,-2.4477,-2.4484,-2.449,-2.4518,-2.453,-2.454,0,0,0,0,0,0,-2.3829,-2.3888,-2.3884,-2.3977,-2.4022,-2.4075,-2.4121,-2.4119,-2.4172,-2.4168,-2.4186,-2.42,-2.4285,-2.4312,-2.427,-2.4417,-2.4382,-2.4393,-2.4397,-2.4408,-2.4417,-2.441,-2.4246,0,0,0,0,0,-2.3844,-2.3902,-2.395,-2.4027,-2.405,-2.4082,-2.4116,-2.4125,-2.4173,-2.4192,-2.4227,-2.4274,-2.4333,-2.4372,-2.4429,-2.4525,-2.4538,-2.4567,-2.4576,-2.4583,-2.4593,-2.4647,-2.466,-2.4514,-2.4514,-2.4514,0,0,-2.3877,-2.3916,-2.3952,-2.4033,-2.4069,-2.4129,-2.4098,-2.4163,-2.4208,-2.4202,-2.4284,-2.4312,-2.4365,-2.4456,-2.4498,-2.4482,-2.4636,-2.4591,-2.4597,-2.4603,-2.4655,-2.4669,-2.4681,-2.4519,-2.4518,-2.4517,0,0,-2.3968,-2.4002,-2.4071,-2.4107,-2.4162,-2.4182,-2.4199,-2.4252,-2.427,-2.4353,-2.435,-2.4404,-2.4505,-2.4544,-2.4577,-2.4681,-2.4677,-2.4699,-2.4747,-2.48,-2.4811,-2.4821,-2.486,-2.4874,-2.4708,-2.4708,-2.4708,0,-2.4002,-2.4092,-2.4106,-2.4172,-2.4208,-2.4205,-2.4275,-2.4309,-2.438,-2.4405,-2.4385,-2.4513,-2.4548,-2.4649,-2.4675,-2.4701,-2.4721,-2.4694,-2.4808,-2.4819,-2.4829,-2.4866,-2.488,-2.4711,-2.471,-2.471,-2.471,0,-2.4131,-2.4194,-2.4242,-2.431,-2.4352,-2.4419,-2.4445,-2.4485,-2.449,-2.4513,-2.4597,-2.464,-2.4706,-2.473,-2.4735,-2.4831,-2.482,-2.4804,-2.4769,-2.4845,-2.488,-2.4894,-2.4714,-2.4713,-2.4713,-2.4712,0,0,-2.424,-2.4314,-2.4332,-2.4363,-2.4423,-2.4472,-2.4539,-2.4603,-2.4638,-2.4686,-2.4744,-2.4829,-2.4815,-2.4852,-2.4862,-2.4908,-2.4989,-2.4886,-2.4888,-2.4905,-2.5099,-2.5112,-2.5128,-2.4986,-2.4989,-2.4991,-2.5095,0,-2.4337,-2.4457,-2.4472,-2.4578,-2.4636,-2.4633,-2.4692,-2.4735,-2.4758,-2.4811,-2.4836,-2.4897,-2.4873,-2.4896,-2.4941,-2.497,-2.5029,-2.4962,-2.5041,-2.5044,-2.503,-2.5146,-2.516,-2.5257,-2.5109,-2.5111,-2.5113,0,-2.4468,-2.452,-2.4631,-2.4683,-2.4708,-2.4761,-2.4821,-2.4871,-2.492,-2.4934,-2.4975,-2.4979,-2.505,-2.501,-2.5108,-2.5063,-2.5095,-2.5115,-2.5119,-2.5128,-2.5084,-2.5161,-2.5288,-2.5303,-2.5135,-2.5133,-2.5131,0,-2.4538,-2.4635,-2.4715,-2.4741,-2.4803,-2.4841,-2.4868,-2.4915,-2.4952,-2.5004,-2.5029,-2.5089,-2.5122,-2.5169,-2.5189,-2.5158,-2.5286,-2.5248,-2.53,-2.53,-2.5329,-2.5327,-2.5465,-2.5347,-2.5347,-2.5347,-2.5346,0,-2.4646,-2.4715,-2.4747,-2.4796,-2.4874,-2.489,-2.4966,-2.4992,-2.5034,-2.5089,-2.5089,-2.5141,-2.5163,-2.5219,-2.5235,-2.5314,-2.5329,-2.5342,-2.5346,-2.5343,-2.5342,-2.5366,-2.5361,-2.5351,-2.535,-2.5349,-2.5348,0,-2.4738,-2.4762,-2.4849,-2.49,-2.4915,-2.497,-2.5014,-2.5062,-2.5084,-2.5153,-2.517,-2.5205,-2.527,-2.5294,-2.5373,-2.5384,-2.5476,-2.5474,-2.546,-2.5461,-2.5512,-2.5508,-2.5672,-2.5695,-2.5561,-2.5562,-2.5563,0,-2.4807,-2.486,-2.4916,-2.4953,-2.4982,-2.5041,-2.5079,-2.5097,-2.5137,-2.5196,-2.5237,-2.5302,-2.5355,-2.5459,-2.5491,-2.5552,-2.5552,-2.5605,-2.5561,-2.5557,-2.5555,-2.5552,-2.5558,-2.5614,-2.5616,-2.5617,-2.5618,0,-2.4926,-2.4936,-2.499,-2.505,-2.5095,-2.5142,-2.5189,-2.5218,-2.5243,-2.5288,-2.5354,-2.5395,-2.5476,-2.554,-2.5603,-2.5632,-2.563,-2.5631,-2.5646,-2.5645,-2.5635,-2.5643,-2.5484,-2.5627,-2.5626,-2.5626,-2.5625,-2.5625,-2.501,-2.5057,-2.5105,-2.5166,-2.5202,-2.5245,-2.5293,-2.532,-2.5376,-2.5443,-2.545,-2.5521,-2.5569,-2.5652,-2.5684,-2.5741,-2.5727,-2.5749,-2.5755,-2.576,-2.5765,-2.5625,-2.5752,-2.5752,-2.5752,-2.5751,-2.5751,0,-2.5131,-2.5161,-2.5217,-2.5282,-2.533,-2.5322,-2.5373,-2.5414,-2.5476,-2.5521,-2.5573,-2.5649,-2.5711,-2.5748,-2.5811,-2.585,-2.585,-2.5866,-2.5864,-2.5871,-2.5773,-2.5754,-2.5864,-2.5864,-2.5864,-2.5864,-2.5864,-2.5864,-2.52,-2.528,-2.5294,-2.5392,-2.5422,-2.5492,-2.5522,-2.5562,-2.5597,-2.5682,-2.5734,-2.5757,-2.5799,-2.5865,-2.5922,-2.5931,-2.5955,-2.5972,-2.5981,-2.5889,-2.5878,-2.5867,-2.5849,-2.5977,-2.5977,-2.6074,-2.6075,-2.6076]},{"header":{"parameterUnit":"m.s-1","parameterCategory":1,"la1":30.2991,"la2":30.254,"lo1":-89.0895,"lo2":-89.0444,"dy":0.0017,"dx":0.0017,"nx":28,"ny":28,"refTime":"2024-08-04T09:00:00:Z","depth":0,"parameterNumber":3,"parameterNumberName":"V-component_of_WINDS"},"data":[0,0,0,0,0,0,0,0,0,0,0,0,0,0,0,0,0,0,0,0,0,0,0,0,0,0,0,0,0,0,0,0,0,0,0,0,0,0,0,0,0,0,0,0,0,0,0,0,0,0,0,0,0,0,0,0,0,0,-4.1102,-4.1102,0,-4.1138,-4.1138,-4.1138,-4.11,-4.1099,-4.1097,-4.1096,-4.1129,-4.1132,-4.1134,0,0,0,0,0,0,0,0,0,0,0,0,0,-4.0997,-4.0999,-4.1102,-4.1102,-4.1103,-4.1138,-4.1138,-4.1139,-4.1101,-4.1099,-4.1097,-4.1095,-4.1129,-4.1131,-4.1134,0,0,0,0,0,0,0,0,0,0,0,0,0,-4.1039,-4.1,-4.1102,-4.1088,-4.1087,-4.1138,-4.1138,-4.1139,-4.1101,-4.1099,-4.1096,-4.1094,-4.1128,-4.1131,-4.1134,-4.1199,0,0,-4.1145,-4.1146,0,0,0,0,0,0,0,0,-4.1036,-4.1043,-4.109,-4.1089,-4.1088,-4.1112,-4.1113,-4.1159,-4.1101,-4.1096,-4.1096,-4.1093,-4.1125,-4.1129,-4.114,-4.1201,-4.1202,-4.1145,-4.1147,-4.1149,-4.115,0,0,0,0,0,0,0,-4.1034,-4.1041,-4.1116,-4.109,-4.1089,-4.1079,-4.1082,-4.1122,-4.1122,-4.1096,-4.1093,-4.1098,-4.1124,-4.1137,-4.1141,-4.1203,-4.1145,-4.1148,-4.115,-4.1151,-4.1319,-4.1321,0,0,0,0,0,0,-4.1033,-4.1039,-4.1115,-4.1117,-4.1056,-4.1083,-4.1087,-4.1107,-4.1122,-4.1122,-4.11,-4.1096,-4.1132,-4.1137,-4.1142,-4.1219,-4.1149,-4.1152,-4.1154,-4.1316,-4.1319,-4.1322,0,0,0,0,0,0,-4.1031,-4.104,-4.1113,-4.1077,-4.1086,-4.1087,-4.111,-4.1109,-4.1121,-4.1125,-4.1124,-4.1113,-4.1131,-4.1137,-4.1186,-4.122,-4.1153,-4.1156,-4.1314,-4.1317,-4.1321,-4.1375,0,0,0,0,0,0,-4.1028,-4.1039,-4.1065,-4.1078,-4.1088,-4.1158,-4.1112,-4.1111,-4.1127,-4.1123,-4.1137,-4.1137,-4.113,-4.1181,-4.1189,-4.1223,-4.1159,-4.131,-4.1315,-4.1319,-4.137,-4.138,-4.1388,0,0,0,0,0,-4.1024,-4.1077,-4.1066,-4.1075,-4.112,-4.116,-4.1165,-4.1156,-4.113,-4.1156,-4.1158,-4.1137,-4.1215,-4.1186,-4.1195,-4.1231,-4.1308,-4.1314,-4.1319,-4.1366,-4.1378,-4.1388,0,0,0,0,0,0,-4.1066,-4.1079,-4.1066,-4.1126,-4.1142,-4.1153,-4.1185,-4.1169,-4.1192,-4.1187,-4.1174,-4.1177,-4.1229,-4.1235,-4.1202,-4.1295,-4.1257,-4.1265,-4.129,-4.1301,-4.131,-4.1308,-4.1162,0,0,0,0,0,-4.1083,-4.1116,-4.1124,-4.1176,-4.1185,-4.1183,-4.12,-4.1192,-4.1208,-4.1215,-4.122,-4.1236,-4.1264,-4.1282,-4.1308,-4.137,-4.1373,-4.1399,-4.1409,-4.1416,-4.1423,-4.1457,-4.1469,-4.134,-4.134,-4.134,0,0,-4.1117,-4.1128,-4.1149,-4.1185,-4.1196,-4.123,-4.1189,-4.1226,-4.1251,-4.122,-4.1267,-4.1272,-4.1288,-4.1344,-4.1369,-4.135,-4.1459,-4.1423,-4.1429,-4.1432,-4.1464,-4.1476,-4.1487,-4.1344,-4.1343,-4.1342,0,0,-4.1196,-4.1208,-4.1253,-4.1266,-4.1284,-4.1283,-4.1294,-4.1308,-4.131,-4.1357,-4.1335,-4.1363,-4.1412,-4.1425,-4.1437,-4.1523,-4.1504,-4.1531,-4.1579,-4.1613,-4.1623,-4.1632,-4.1663,-4.1674,-4.1538,-4.1538,-4.1538,0,-4.1236,-4.1287,-4.1277,-4.1316,-4.1333,-4.1308,-4.1353,-4.1365,-4.1391,-4.1403,-4.1381,-4.1442,-4.1451,-4.151,-4.1531,-4.1542,-4.1554,-4.153,-4.1622,-4.1631,-4.1639,-4.1669,-4.1681,-4.1541,-4.1541,-4.154,-4.154,0,-4.1335,-4.1371,-4.1404,-4.1432,-4.1452,-4.1493,-4.149,-4.1511,-4.1501,-4.1502,-4.155,-4.156,-4.1588,-4.1601,-4.1591,-4.1659,-4.1647,-4.1625,-4.1587,-4.1655,-4.1683,-4.1694,-4.1546,-4.1545,-4.1544,-4.1543,0,0,-4.1443,-4.1465,-4.1478,-4.149,-4.1509,-4.1536,-4.1576,-4.1605,-4.1624,-4.1642,-4.1676,-4.1718,-4.1697,-4.1712,-4.1703,-4.1732,-4.18,-4.1706,-4.1706,-4.1724,-4.1877,-4.1895,-4.1908,-4.1788,-4.179,-4.1792,-4.1876,0,-4.1523,-4.1596,-4.1589,-4.1657,-4.1689,-4.1666,-4.1701,-4.1716,-4.1718,-4.1746,-4.1747,-4.1777,-4.1747,-4.1756,-4.1784,-4.1786,-4.1831,-4.178,-4.1819,-4.1821,-4.1817,-4.1923,-4.1942,-4.2021,-4.1886,-4.1888,-4.189,0,-4.1628,-4.1652,-4.1724,-4.1739,-4.1753,-4.1785,-4.1811,-4.1837,-4.1854,-4.1853,-4.187,-4.1856,-4.1896,-4.1857,-4.1912,-4.1878,-4.1893,-4.1897,-4.1899,-4.1904,-4.186,-4.1931,-4.2046,-4.2058,-4.1906,-4.1905,-4.1904,0,-4.1701,-4.1751,-4.1801,-4.1812,-4.183,-4.1854,-4.1862,-4.1877,-4.1895,-4.1917,-4.1929,-4.1955,-4.1969,-4.1989,-4.1983,-4.1955,-4.204,-4.2,-4.204,-4.2041,-4.206,-4.2059,-4.218,-4.2068,-4.2068,-4.2068,-4.2068,0,-4.1792,-4.1838,-4.1834,-4.1865,-4.1915,-4.1905,-4.1955,-4.196,-4.1973,-4.2004,-4.1984,-4.2013,-4.2003,-4.2031,-4.2026,-4.2073,-4.2079,-4.208,-4.2078,-4.2082,-4.2082,-4.2093,-4.2088,-4.2071,-4.207,-4.207,-4.2069,0,-4.1883,-4.1882,-4.1935,-4.1949,-4.1953,-4.199,-4.2001,-4.2029,-4.203,-4.2069,-4.2078,-4.2078,-4.2111,-4.2106,-4.2141,-4.2138,-4.2197,-4.2188,-4.2192,-4.219,-4.2232,-4.2229,-4.2365,-4.2383,-4.2258,-4.2259,-4.226,0,-4.1942,-4.1977,-4.1995,-4.2015,-4.2026,-4.2058,-4.2076,-4.2068,-4.2088,-4.211,-4.2136,-4.2167,-4.2192,-4.2245,-4.2247,-4.2275,-4.2267,-4.2313,-4.2271,-4.2274,-4.2269,-4.2268,-4.2271,-4.2321,-4.2323,-4.2324,-4.2325,0,-4.2048,-4.2046,-4.2075,-4.2104,-4.2127,-4.2149,-4.2169,-4.2186,-4.2179,-4.2203,-4.2237,-4.2256,-4.2293,-4.2324,-4.235,-4.2357,-4.2341,-4.2338,-4.2349,-4.2354,-4.2356,-4.2357,-4.2216,-4.2335,-4.2334,-4.2333,-4.2333,-4.2332,-4.2125,-4.2155,-4.2173,-4.2206,-4.222,-4.224,-4.2268,-4.2272,-4.2301,-4.2331,-4.2324,-4.2363,-4.2378,-4.2411,-4.2422,-4.2451,-4.2434,-4.245,-4.2454,-4.2458,-4.2464,-4.2351,-4.2455,-4.2455,-4.2455,-4.2454,-4.2454,0,-4.2231,-4.2242,-4.2272,-4.2301,-4.2327,-4.231,-4.2331,-4.2353,-4.2388,-4.2404,-4.2429,-4.2468,-4.2498,-4.2504,-4.2532,-4.2555,-4.2548,-4.2563,-4.2562,-4.2564,-4.2477,-4.2465,-4.2568,-4.2568,-4.2568,-4.2568,-4.2568,-4.2568,-4.229,-4.234,-4.2341,-4.2398,-4.2407,-4.2446,-4.246,-4.2477,-4.2491,-4.2536,-4.2561,-4.2565,-4.2577,-4.2607,-4.2634,-4.2634,-4.2646,-4.2665,-4.2662,-4.2581,-4.257,-4.2559,-4.2548,-4.2667,-4.2667,-4.2747,-4.2748,-4.2749]}]]